Time,TemperatureF,DewpointF,PressureIn,WindDirection,WindDirectionDegrees,WindSpeedMPH,WindSpeedGustMPH,Humidity,HourlyPrecipIn,Conditions,Clouds,dailyrainin,SoftwareType,DateUTC
2013-06-22 18:37:00,78.1,68.5,28.94,East,90,7.5,10.7,72,0.06,,,1.24,Rainwise IP-100,2013-06-22 23:37:00,
2013-06-22 18:42:00,77.8,68.0,28.94,East,90,3.5,10.0,72,0.00,,,0.00,Rainwise IP-100,2013-06-22 23:42:00,
2013-06-22 18:47:00,77.8,68.0,28.93,ENE,67,6.8,11.2,72,0.00,,,0.00,Rainwise IP-100,2013-06-22 23:47:00,
2013-06-22 18:52:00,77.7,68.5,28.94,East,90,7.5,8.9,73,0.00,,,0.00,Rainwise IP-100,2013-06-22 23:52:00,
2013-06-22 18:57:00,77.8,68.5,28.94,NE,45,4.2,7.5,73,0.00,,,0.01,Rainwise IP-100,2013-06-22 23:57:00,
2013-06-22 19:02:00,78.1,69.0,28.93,NE,45,5.4,6.1,73,0.06,,,0.01,Rainwise IP-100,2013-06-23 00:02:00,
2013-06-22 19:07:00,78.1,69.0,28.93,NE,45,3.3,6.8,73,0.06,,,0.01,Rainwise IP-100,2013-06-23 00:07:00,
2013-06-22 19:12:00,78.1,68.5,28.93,NE,45,3.7,7.0,72,0.00,,,0.01,Rainwise IP-100,2013-06-23 00:12:00,
2013-06-22 19:18:00,78.1,68.5,28.93,ENE,67,3.5,4.9,72,0.00,,,0.01,Rainwise IP-100,2013-06-23 00:18:00,
2013-06-22 19:23:00,77.9,69.0,28.93,NNE,22,4.2,5.8,73,0.00,,,0.01,Rainwise IP-100,2013-06-23 00:23:00,
2013-06-22 19:28:00,77.7,68.5,28.93,NNE,22,3.7,5.1,73,0.06,,,0.02,Rainwise IP-100,2013-06-23 00:28:00,
2013-06-22 19:33:00,77.8,69.0,28.93,NE,45,3.5,6.8,74,0.06,,,0.02,Rainwise IP-100,2013-06-23 00:33:00,
2013-06-22 19:38:00,77.7,69.0,28.93,ENE,67,2.8,7.9,74,0.00,,,0.02,Rainwise IP-100,2013-06-23 00:38:00,
2013-06-22 19:43:00,77.4,69.0,28.92,NE,45,3.3,6.1,75,0.00,,,0.02,Rainwise IP-100,2013-06-23 00:43:00,
2013-06-22 19:48:00,77.2,69.3,28.92,NE,45,6.5,6.5,76,0.00,,,0.02,Rainwise IP-100,2013-06-23 00:48:00,
2013-06-22 19:53:00,77.1,69.0,28.92,NE,45,4.0,7.7,76,0.00,,,0.02,Rainwise IP-100,2013-06-23 00:53:00,
2013-06-22 19:58:00,76.9,69.0,28.91,NE,45,5.1,7.5,76,0.00,,,0.03,Rainwise IP-100,2013-06-23 00:58:00,
2013-06-22 20:03:00,76.8,69.3,28.91,NNE,22,5.1,6.3,77,0.06,,,0.03,Rainwise IP-100,2013-06-23 01:03:00,
2013-06-22 20:08:00,76.7,69.3,28.92,NE,45,3.5,6.1,77,0.06,,,0.03,Rainwise IP-100,2013-06-23 01:08:00,
2013-06-22 20:13:00,76.6,69.0,28.91,NE,45,2.6,5.6,77,0.00,,,0.03,Rainwise IP-100,2013-06-23 01:13:00,
2013-06-22 20:18:00,76.5,69.0,28.91,NE,45,3.3,5.6,77,0.00,,,0.03,Rainwise IP-100,2013-06-23 01:18:00,
2013-06-22 20:21:00,76.5,69.3,28.91,NNE,22,3.3,5.4,78,0.00,,,0.03,Rainwise IP-100,2013-06-23 01:21:00,
2013-06-22 20:26:00,76.3,69.0,28.90,NE,45,4.4,5.1,78,0.00,,,0.03,Rainwise IP-100,2013-06-23 01:26:00,
2013-06-22 20:31:00,76.3,69.0,28.91,NE,45,2.8,7.9,78,0.00,,,0.03,Rainwise IP-100,2013-06-23 01:31:00,
2013-06-22 20:36:00,76.1,68.5,28.91,NE,45,2.8,4.2,78,0.06,,,0.04,Rainwise IP-100,2013-06-23 01:36:00,
2013-06-22 20:41:00,75.8,69.0,28.91,NE,45,2.6,3.5,79,0.06,,,0.04,Rainwise IP-100,2013-06-23 01:41:00,
2013-06-22 20:46:00,75.6,69.0,28.91,NE,45,2.1,3.7,80,0.00,,,0.04,Rainwise IP-100,2013-06-23 01:46:00,
2013-06-22 20:51:00,75.3,69.3,28.92,NE,45,2.3,3.5,81,0.00,,,0.04,Rainwise IP-100,2013-06-23 01:51:00,
2013-06-22 20:56:00,75.2,69.0,28.91,NNE,22,3.7,4.9,81,0.00,,,0.04,Rainwise IP-100,2013-06-23 01:56:00,
2013-06-22 21:01:00,75.1,69.3,28.91,NE,45,3.0,5.8,82,0.00,,,0.04,Rainwise IP-100,2013-06-23 02:01:00,
2013-06-22 21:06:00,75.1,69.3,28.91,NE,45,3.7,4.7,82,0.06,,,0.05,Rainwise IP-100,2013-06-23 02:06:00,
2013-06-22 21:11:00,74.9,69.3,28.91,ENE,67,3.7,4.4,82,0.06,,,0.05,Rainwise IP-100,2013-06-23 02:11:00,
2013-06-22 21:16:00,74.5,69.3,28.91,ENE,67,2.8,5.1,83,0.00,,,0.05,Rainwise IP-100,2013-06-23 02:16:00,
2013-06-22 21:21:00,74.4,69.3,28.91,ENE,67,1.9,5.1,84,0.00,,,0.05,Rainwise IP-100,2013-06-23 02:21:00,
2013-06-22 21:26:00,74.6,69.3,28.91,NE,45,2.8,5.6,83,0.00,,,0.05,Rainwise IP-100,2013-06-23 02:26:00,
2013-06-22 21:31:00,74.7,69.3,28.90,NE,45,2.6,4.0,83,0.00,,,0.06,Rainwise IP-100,2013-06-23 02:31:00,
2013-06-22 21:36:00,74.6,69.3,28.92,NE,45,3.3,4.4,83,0.06,,,0.06,Rainwise IP-100,2013-06-23 02:36:00,
2013-06-22 21:41:00,74.5,69.3,28.91,ENE,67,4.2,5.4,83,0.06,,,0.06,Rainwise IP-100,2013-06-23 02:41:00,
2013-06-22 21:46:00,74.5,69.7,28.92,ENE,67,3.5,4.9,84,0.00,,,0.06,Rainwise IP-100,2013-06-23 02:46:00,
2013-06-22 21:51:00,74.6,69.7,28.92,East,90,2.8,4.7,84,0.00,,,0.06,Rainwise IP-100,2013-06-23 02:51:00,
2013-06-22 21:56:00,74.6,69.3,28.92,ENE,67,4.7,6.1,83,0.00,,,0.06,Rainwise IP-100,2013-06-23 02:56:00,
2013-06-22 22:01:00,74.5,69.3,28.92,ENE,67,4.2,5.8,83,0.06,,,0.07,Rainwise IP-100,2013-06-23 03:01:00,
2013-06-22 22:06:00,74.4,69.3,28.93,East,90,2.8,6.5,84,0.06,,,0.07,Rainwise IP-100,2013-06-23 03:06:00,
2013-06-22 22:11:00,74.4,69.3,28.93,East,90,5.6,7.7,84,0.00,,,0.07,Rainwise IP-100,2013-06-23 03:11:00,
2013-06-22 22:16:00,74.3,69.3,28.93,ESE,112,5.1,7.2,84,0.00,,,0.07,Rainwise IP-100,2013-06-23 03:16:00,
2013-06-22 22:21:00,74.3,69.3,28.93,East,90,3.0,7.5,84,0.00,,,0.07,Rainwise IP-100,2013-06-23 03:21:00,
2013-06-22 22:26:00,74.3,69.3,28.93,ESE,112,3.0,6.3,84,0.00,,,0.07,Rainwise IP-100,2013-06-23 03:26:00,
2013-06-22 22:31:00,74.3,69.7,28.92,ESE,112,3.0,7.0,85,0.00,,,0.08,Rainwise IP-100,2013-06-23 03:31:00,
2013-06-22 22:36:00,74.3,69.7,28.92,ESE,112,4.9,6.1,85,0.06,,,0.08,Rainwise IP-100,2013-06-23 03:36:00,
2013-06-22 22:41:00,74.2,69.7,28.92,ENE,67,7.9,7.9,85,0.06,,,0.08,Rainwise IP-100,2013-06-23 03:41:00,
2013-06-22 22:46:00,74.2,69.7,28.92,ESE,112,3.3,8.2,85,0.00,,,0.08,Rainwise IP-100,2013-06-23 03:46:00,
2013-06-22 22:51:00,74.2,69.7,28.92,East,90,5.1,7.7,85,0.00,,,0.08,Rainwise IP-100,2013-06-23 03:51:00,
2013-06-22 22:56:00,74.3,69.3,28.91,ENE,67,5.8,10.0,84,0.00,,,0.08,Rainwise IP-100,2013-06-23 03:56:00,
2013-06-22 23:02:00,74.3,69.3,28.91,East,90,5.4,10.0,84,0.00,,,0.08,Rainwise IP-100,2013-06-23 04:02:00,
2013-06-22 23:07:00,74.1,69.0,28.91,East,90,6.3,9.8,84,0.00,,,0.08,Rainwise IP-100,2013-06-23 04:07:00,
2013-06-22 23:12:00,74.0,69.0,28.90,East,90,4.4,7.7,84,0.00,,,0.08,Rainwise IP-100,2013-06-23 04:12:00,
2013-06-22 23:17:00,73.7,69.0,28.90,East,90,4.7,9.8,85,0.06,,,0.09,Rainwise IP-100,2013-06-23 04:17:00,
2013-06-22 23:22:00,73.5,69.3,28.91,ENE,67,6.5,8.6,86,0.06,,,0.09,Rainwise IP-100,2013-06-23 04:22:00,
2013-06-22 23:27:00,73.3,69.3,28.90,East,90,4.2,6.5,87,0.00,,,0.09,Rainwise IP-100,2013-06-23 04:27:00,
2013-06-22 23:32:00,73.1,69.0,28.90,East,90,5.6,8.2,87,0.00,,,0.09,Rainwise IP-100,2013-06-23 04:32:00,
2013-06-22 23:37:00,72.9,69.0,28.89,East,90,3.5,7.5,87,0.00,,,0.09,Rainwise IP-100,2013-06-23 04:37:00,
2013-06-22 23:42:00,72.7,69.0,28.90,East,90,2.6,7.0,88,0.00,,,0.09,Rainwise IP-100,2013-06-23 04:42:00,
2013-06-22 23:47:00,72.7,69.0,28.91,ESE,112,4.2,6.5,88,0.00,,,0.09,Rainwise IP-100,2013-06-23 04:47:00,
2013-06-22 23:52:00,72.7,69.0,28.91,SE,135,3.0,6.3,88,0.00,,,0.09,Rainwise IP-100,2013-06-23 04:52:00,
2013-06-22 23:57:00,72.8,69.0,28.91,ESE,112,6.5,7.7,88,0.00,,,0.09,Rainwise IP-100,2013-06-23 04:57:00,